Regional Weather Roundup
Issued by NWS

Home | Current Version | Previous Version | Text Only | Print | Product List | Glossary Off
Versions: 1 2 3 4 5 6 7 8 9 10 11 12 13 14 15 16 17 18 19 20 21 22 23 24 25 26 27 28 29 30 31 32 33 34 35 36 37 38 39 40 41 42 43 44 45 46 47 48 49 50

000
ASUS44 KMEG 091000
RWRTN
TENNESSEE HOURLY STATE WEATHER ROUNDUP
NATIONAL WEATHER SERVICE MEMPHIS TN
400 AM CST TUE FEB 09 2016

TNZ002-004-019-021-049-052-054-088>092-091100-
WEST TENNESSEE

CITY           SKY/WX    TMP DP  RH WIND       PRES   REMARKS
MEMPHIS INTL   CLOUDY    33  18  53 NW10      29.95F WCI  25
NWS MEMPHIS      N/A     32 N/A N/A MISG        N/A
JACKSON        FLURRIES  29  22  75 NW13      29.92R WCI  19
DYERSBURG      CLOUDY    28  18  64 NW13G23   29.95R WCI  18
UNION CITY     CLOUDY    25  21  86 W9        29.90R WCI  15
PARIS          CLOUDY    25  16  68 NW5       29.87S WCI  19
$$

TNZ008-025-027-028-033-062-065-066-091100-
NORTH MIDDLE TENNESSEE

CITY           SKY/WX    TMP DP  RH WIND       PRES   REMARKS
NASHVILLE      FLURRIES  27  18  69 NW8       29.85S WCI  19
CLARKSVILLE    CLOUDY    25  17  72 NW14      29.86S WCI  13
COOKEVILLE     CLOUDY    25  16  68 VRB6      29.81R WCI  18
CROSSVILLE     CLOUDY    21  13  71 W8        29.75R WCI  11
$$

TNZ061-075-076-078-094-096-097-091100-
SOUTH MIDDLE TENNESSEE

CITY           SKY/WX    TMP DP  RH WIND       PRES   REMARKS
TULLAHOMA      CLOUDY    25  23  93 N6        29.83R WCI  18
WINCHESTER     CLOUDY    27  18  69 NW7       29.83S WCI  19
MCMINNVILLE    CLOUDY    23  18  80 W5        29.82R WCI  17
COLUMBIA       CLOUDY    28  25  86 W7        29.84R WCI  21
SHELBYVILLE    CLOUDY    27  25  93 N6        29.86R WCI  20
$$

TNZ017-018-042-046-047-091100-
NORTHEAST TENNESSEE

CITY           SKY/WX    TMP DP  RH WIND       PRES   REMARKS
TRI CITIES     LGT SNOW  26  22  84 SW9       29.69R FOG     WCI  17
$$

TNZ012-013-036-069-073-074-091100-
CENTRAL EAST TENNESSEE

CITY           SKY/WX    TMP DP  RH WIND       PRES   REMARKS
KNOXVILLE      FLURRIES  28  17  63 W9        29.77S WCI  19
OAK RIDGE      CLOUDY    28  17  63 W10G16    29.79R WCI  19
GATLINBURG     CLOUDY    27  16  63 SW9       29.75S WCI  17
$$

TNZ083-085-099-091100-
SOUTHEAST TENNESSEE

CITY           SKY/WX    TMP DP  RH WIND       PRES   REMARKS
CHATTANOOGA    CLOUDY    32  18  56 W10       29.83R WCI  24
$$

SKY/WX REPORTED AS FAIR MEANS FEW OR NO CLOUDS BELOW
12 THOUSAND FEET.




USA.gov is the U.S. government's official web portal to all federal, state and local government web resources and services.